Погода в Ноле

Италия     40°55′41″N   14°31′43″E
темп.,
°C
ветер,
м/с
пор.,
м/с
влажн.,
%
обл.,
%
осадки,
мм/ч
давл.,
гПа
погр.,
м
26 февраля, пт
пт2601:00+12всв12590 0.0 103053
04:00+11всв12610 0.0 102942
07:00+11всв12570 0.0 102939
10:00+16зюз01390 0.0 1029314
13:00+19з21300 0.0 1028688
16:00+19з32320 0.0 1026826
19:00+15з22540 0.0 1026304
22:00+13з11670 0.0 102678
27 февраля, сб
сб2701:00+12зюз01740 0.0 102523
04:00+11юв00770 0.0 102422
07:00+11в11750 0.0 102424
10:00+15ююз01510 0.0 1024390
13:00+19зсз12380 0.0 1023994
16:00+19ссз12380 0.0 10231352
19:00+16св13530 0.0 1024398
22:00+13всв35530 0.0 1025423
28 февраля, вс
вс2801:00+12всв46580 0.0 1025416
04:00+10всв49540 0.0 1024572
07:00+9всв410580 0.0 1025646
10:00+12всв49390 0.0 1026878
13:00+14всв48350 0.0 10261172
16:00+14всв46370 0.0 10251119
19:00+11всв46490 0.0 1027663
22:00+8всв46520 0.0 1028446
1 марта, пн
пн101:00+7всв35550 0.0 1028296
04:00+6всв34590 0.0 1028230
07:00+6всв34610 0.0 1029168
10:00+10всв23440 0.0 1030374
13:00+15ссв11232 0.0 1030994
16:00+15с122239 0.0 10291215
19:00+12ссз124523 0.0 1030540
22:00+10св235727 0.0 1032202
2 марта, вт
вт201:00+9всв236749 0.0 1031167
04:00+8всв347046 0.0 1031173
07:00+7всв346923 0.0 1032181
10:00+11всв34480 0.0 1033481
13:00+15всв22320 0.0 10331058
16:00+16св23320 0.0 10321405
19:00+13св13520 0.0 1033568
22:00+10всв23640 0.0 1034261